AE5TC Weather Reports


time (UTC)temp
F
wind
direction
speed
knots
gust
knots
rain 1hr
in
rain 24hr
in
rain mn
in
humidity
%
barometer
mb
20260505224017 77 286 1.7 2.6 0.00 0.00 0.00 79 1013.9
20260505223514 77 309 1.7 2.6 0.00 0.00 0.00 81 1013.8
20260505223010 77 281 0.0 0.9 0.00 0.00 0.00 80 1013.8
20260505222507 77 278 1.7 2.6 0.00 0.00 0.00 78 1013.8
20260505222003 77 309 1.7 2.6 0.00 0.00 0.00 78 1013.8
20260505221500 77 111 1.7 2.6 0.00 0.00 0.00 79 1013.9
20260505220957 78 356 2.6 3.5 0.00 0.00 0.00 78 1013.8
20260505220454 78 23 3.5 3.5 0.00 0.00 0.00 79 1014.0
20260505215951 78 239 3.5 5.2 0.00 0.00 0.00 74 1013.9
20260505215450 78 334 2.6 3.5 0.00 0.00 0.00 71 1013.8
20260505214947 78 298 2.6 2.6 0.00 0.00 0.00 72 1014.0
20260505214445 78 34 3.5 5.2 0.00 0.00 0.00 75 1014.1
20260505213942 79 223 1.7 1.7 0.00 0.00 0.00 73 1014.0
20260505213440 79 118 0.9 1.7 0.00 0.00 0.00 73 1014.0
20260505212936 78 299 1.7 2.6 0.00 0.00 0.00 74 1014.0
20260505212433 79 30 2.6 2.6 0.00 0.00 0.00 71 1014.0
20260505211928 78 6 6.1 8.7 0.00 0.00 0.00 74 1013.9
20260505211426 78 286 1.7 2.6 0.00 0.00 0.00 71 1014.0
20260505210922 78 3 3.5 6.1 0.00 0.00 0.00 67 1013.7
20260505210423 79 336 3.5 5.2 0.00 0.00 0.00 65 1014.0
20260505205916 79 28 1.7 2.6 0.00 0.00 0.00 66 1014.0
20260505205415 79 73 3.5 3.5 0.00 0.00 0.00 67 1014.0
20260505204912 80 218 2.6 3.5 0.00 0.00 0.00 67 1014.0
20260505204409 79 250 1.7 5.2 0.00 0.00 0.00 67 1014.0
20260505203906 80 337 1.7 2.6 0.00 0.00 0.00 60 1014.3
20260505203403 80 277 2.6 2.6 0.00 0.00 0.00 68 1014.2
20260505202859 79 276 1.7 1.7 0.00 0.00 0.00 66 1014.3
20260505202355 79 345 2.6 3.5 0.00 0.00 0.00 68 1014.2
20260505201852 80 171 3.5 5.2 0.00 0.00 0.00 64 1014.4
20260505201349 81 251 0.9 0.9 0.00 0.00 0.00 65 1014.4
20260505200848 81 53 2.6 3.5 0.00 0.00 0.00 64 1014.4
20260505200344 81 70 2.6 5.2 0.00 0.00 0.00 63 1014.4
20260505195840 80 32 2.6 2.6 0.00 0.00 0.00 67 1014.4
20260505195337 80 136 3.5 5.2 0.00 0.00 0.00 63 1014.5
20260505194834 80 307 1.7 1.7 0.00 0.00 0.00 65 1014.5
20260505194331 80 5 2.6 3.5 0.00 0.00 0.00 63 1014.6
20260505193827 80 246 2.6 3.5 0.00 0.00 0.00 66 1014.6
20260505193325 81 312 2.6 3.5 0.00 0.00 0.00 67 1014.5
20260505192822 81 333 1.7 3.5 0.00 0.00 0.00 68 1015.1
20260505192320 80 265 1.7 1.7 0.00 0.00 0.00 65 1014.9
20260505191817 79 348 1.7 2.6 0.00 0.00 0.00 68 1015.0
20260505191316 79 345 2.6 5.2 0.00 0.00 0.00 66 1014.9
20260505190812 79 65 2.6 2.6 0.00 0.00 0.00 67 1015.1
20260505190308 79 285 0.0 0.9 0.00 0.00 0.00 69 1014.9
20260505185804 79 276 3.5 3.5 0.00 0.00 0.00 63 1014.7
20260505185300 79 14 3.5 3.5 0.00 0.00 0.00 59 1014.9
20260505184756 80 348 4.3 6.1 0.00 0.00 0.00 59 1014.7
20260505184254 80 31 2.6 5.2 0.00 0.00 0.00 56 1014.9
20260505183751 79 106 4.3 6.1 0.00 0.00 0.00 64 1014.9
20260505183248 79 77 5.2 7.0 0.00 0.00 0.00 61 1014.8
20260505182744 81 326 2.6 3.5 0.00 0.00 0.00 61 1014.9
20260505182241 80 4 3.5 6.1 0.00 0.00 0.00 61 1015.1
20260505181737 80 125 0.9 1.7 0.00 0.00 0.00 62 1015.2
20260505181235 80 22 7.0 8.7 0.00 0.00 0.00 61 1015.3
20260505180731 81 300 1.7 2.6 0.00 0.00 0.00 67 1015.3
20260505180228 79 46 2.6 3.5 0.00 0.00 0.00 69 1015.3
20260505175724 80 26 2.6 2.6 0.00 0.00 0.00 69 1015.3
20260505175221 80 43 1.7 2.6 0.00 0.00 0.00 66 1015.4
20260505174718 79 339 1.7 2.6 0.00 0.00 0.00 69 1015.5
20260505174215 80 331 3.5 5.2 0.00 0.00 0.00 67 1015.4
20260505173710 79 195 0.9 1.7 0.00 0.00 0.00 67 1015.5
20260505173208 80 253 2.6 2.6 0.00 0.00 0.00 67 1015.6
20260505172705 79 333 0.9 1.7 0.00 0.00 0.00 69 1015.4
20260505172201 80 358 2.6 2.6 0.00 0.00 0.00 66 1015.3
20260505171701 79 225 0.9 1.7 0.00 0.00 0.00 66 1015.3
20260505171159 79 0 1.7 2.6 0.00 0.00 0.00 67 1015.3
20260505170655 78 309 2.6 2.6 0.00 0.00 0.00 67 1015.4
20260505170152 80 39 2.6 5.2 0.00 0.00 0.00 66 1015.2
20260505165652 79 288 0.9 0.9 0.00 0.00 0.00 65 1015.3
20260505165149 79 18 2.6 2.6 0.00 0.00 0.00 67 1015.1
20260505164644 80 29 4.3 6.1 0.00 0.00 0.00 65 1015.1
20260505164142 78 31 3.5 3.5 0.00 0.00 0.00 68 1015.2
20260505163640 79 353 1.7 2.6 0.00 0.00 0.00 67 1015.2
20260505163138 78 327 1.7 3.5 0.00 0.00 0.00 68 1015.2
20260505162635 79 309 1.7 1.7 0.00 0.00 0.00 67 1015.3
20260505162132 79 287 0.0 0.9 0.00 0.00 0.00 65 1015.3
20260505161629 80 309 2.6 2.6 0.00 0.00 0.00 64 1015.2
20260505161126 79 33 0.9 2.6 0.00 0.00 0.00 64 1015.3
20260505160624 78 59 4.3 6.1 0.00 0.00 0.00 64 1015.3
20260505160121 79 5 3.5 5.2 0.00 0.00 0.00 64 1015.4
20260505153101 78 17 3.5 5.2 0.00 0.00 0.00 67 1015.4
20260505152557 79 292 0.0 0.9 0.00 0.00 0.00 67 1015.2
20260505152053 78 349 1.7 2.6 0.00 0.00 0.00 69 1015.2
20260505151548 78 44 2.6 2.6 0.00 0.00 0.00 69 1015.4
20260505151046 77 339 1.7 2.6 0.00 0.00 0.00 70 1015.2
20260505150542 77 318 1.7 2.6 0.00 0.00 0.00 71 1015.4
20260505140508 73 305 0.9 1.7 0.00 0.00 0.00 78 1014.9
20260505124921 64 327 1.7 1.7 0.00 0.00 0.00 91 1015.1
20260505124418 63 285 0.9 1.7 0.00 0.00 0.00 91 1015.0
20260505123914 63 309 1.7 2.6 0.00 0.00 0.00 92 1014.9
20260505123411 62 289 0.9 1.7 0.00 0.00 0.00 93 1014.7
20260505122906 62 286 1.7 2.6 0.00 0.00 0.00 92 1014.8
20260505122404 61 294 0.9 1.7 0.00 0.00 0.00 94 1014.9
20260505121900 60 288 0.9 0.9 0.00 0.00 0.00 96 1014.9
20260505121357 59 299 0.0 0.0 0.00 0.00 0.00 99 1015.0
20260505120853 58 290 0.9 0.9 0.00 0.00 0.00 99 1014.9
20260505120350 58 275 1.7 2.6 0.00 0.00 0.00 99 1014.8
20260505115848 57 288 0.9 0.9 0.00 0.00 0.00 99 1014.6
20260505115346 56 318 1.7 1.7 0.00 0.00 0.00 99 1014.8
20260505114843 56 301 1.7 1.7 0.00 0.00 0.00 99 1014.6
20260505114340 56 278 0.0 0.9 0.00 0.00 0.00 99 1014.6
20260505113836 55 319 0.9 1.7 0.00 0.00 0.00 99 1014.5
20260505113333 55 277 0.0 0.0 0.00 0.00 0.00 99 1014.4
20260505112828 55 277 0.0 0.0 0.00 0.00 0.00 99 1014.4
20260505112326 55 294 0.0 0.9 0.00 0.00 0.00 99 1014.3
20260505111822 54 283 0.9 0.9 0.00 0.00 0.00 99 1014.1
20260505111317 54 276 0.0 0.9 0.00 0.00 0.00 99 1014.4
20260505110814 54 276 1.7 1.7 0.00 0.00 0.00 99 1014.1
20260505110311 54 272 0.0 0.9 0.00 0.00 0.00 99 1014.2
20260505101745 54 301 1.7 2.6 0.00 0.00 0.00 99 1014.0
20260505101241 55 274 0.0 0.0 0.00 0.00 0.00 99 1014.0
20260505100738 54 274 0.0 0.0 0.00 0.00 0.00 99 1013.7
20260505100234 54 278 0.0 0.0 0.00 0.00 0.00 99 1014.1
20260505095730 54 276 0.0 0.0 0.00 0.00 0.00 99 1013.8
20260505095228 54 279 0.0 0.0 0.00 0.00 0.00 99 1013.6
20260505094723 54 280 0.0 0.0 0.00 0.00 0.00 99 1013.6
20260505094220 53 277 0.0 0.0 0.00 0.00 0.00 99 1013.5
20260505093716 53 277 0.0 0.0 0.00 0.00 0.00 99 1013.5
20260505093214 53 277 0.0 0.0 0.00 0.00 0.00 99 1013.5
20260505092710 53 276 0.0 0.0 0.00 0.00 0.00 99 1013.4
20260505092210 53 276 0.0 0.0 0.00 0.00 0.00 99 1013.5
20260505091706 53 277 0.0 0.0 0.00 0.00 0.00 99 1013.6
20260505091204 52 278 0.0 0.0 0.00 0.00 0.00 99 1013.4
20260505090701 52 284 0.0 0.9 0.00 0.00 0.00 99 1013.5
20260505090159 51 253 0.0 0.0 0.00 0.00 0.00 99 1013.7
20260505085657 52 253 0.0 0.0 0.00 0.00 0.00 99 1013.4
20260505085155 52 253 0.0 0.0 0.00 0.00 0.00 99 1013.5